EW2795 Weather Reports


time (UTC)temp
F
wind
direction
speed
knots
gust
knots
rain 1hr
in
rain 24hr
in
rain mn
in
humidity
%
barometer
mb
20260508134515 53 221 3.5 0.0 0.00 0.00 0.00 67 1012.2
20260508133005 53 215 3.5 0.0 0.00 0.00 0.00 69 1012.0
20260508131547 52 215 2.6 0.0 0.00 0.00 0.00 71 1012.0
20260508130041 51 262 4.3 0.0 0.00 0.00 0.00 71 1012.2
20260508124532 50 217 3.5 0.0 0.00 0.00 0.00 72 1012.2
20260508123022 49 208 3.5 0.0 0.00 0.00 0.00 73 1012.1
20260508121507 49 205 3.5 0.0 0.00 0.00 0.00 75 1011.9
20260508120112 48 205 3.5 0.0 0.00 0.00 0.00 74 1012.0
20260508114539 47 232 2.6 0.0 0.00 0.00 0.00 76 1011.7
20260508113029 46 215 2.6 0.0 0.00 0.00 0.00 78 1011.7
20260508111523 45 218 1.7 0.0 0.00 0.00 0.00 80 1011.8
20260508110029 44 211 1.7 0.0 0.00 0.00 0.00 80 1011.7
20260508104519 44 210 1.7 0.0 0.00 0.00 0.00 81 1011.5
20260508103026 44 210 1.7 0.0 0.00 0.00 0.00 82 1011.4
20260508101508 43 213 0.9 0.0 0.00 0.00 0.00 85 1011.3
20260508100130 42 237 0.0 0.0 0.00 0.00 0.00 87 1011.2
20260508100002 42 237 0.0 0.0 0.00 0.00 0.00 87 1011.2
20260508094548 42 238 0.0 0.0 0.00 0.00 0.00 88 1011.3
20260508093043 42 240 0.9 0.0 0.00 0.00 0.00 90 1011.5
20260508091530 41 242 0.0 0.0 0.00 0.00 0.00 89 1011.6
20260508090018 42 242 0.0 0.0 0.00 0.00 0.00 89 1011.6
20260508084509 42 343 0.0 0.0 0.00 0.00 0.00 88 1011.6
20260508083052 43 343 0.0 0.0 0.00 0.00 0.00 86 1011.7
20260508081601 44 342 0.0 0.0 0.00 0.00 0.00 84 1011.7
20260508080035 45 342 0.9 0.0 0.00 0.00 0.00 83 1011.7
20260508074523 46 250 0.0 0.0 0.00 0.00 0.00 82 1011.5
20260508073014 47 250 0.0 0.0 0.00 0.00 0.00 81 1011.5
20260508071509 47 250 0.0 0.0 0.00 0.00 0.00 78 1011.7
20260508070055 48 250 0.0 0.0 0.00 0.00 0.00 78 1011.7
20260508064553 48 250 0.0 0.0 0.00 0.00 0.00 77 1011.9
20260508063048 48 250 0.9 0.0 0.00 0.00 0.00 74 1012.5
20260508061534 48 227 0.9 0.0 0.00 0.00 0.00 74 1012.5
20260508060037 49 265 3.5 0.0 0.00 0.00 0.00 74 1012.8
20260508054540 46 273 0.0 0.0 0.00 0.00 0.00 85 1012.9
20260508053006 46 273 0.0 0.0 0.00 0.00 0.00 84 1012.3
20260508051600 46 273 0.0 0.0 0.00 0.00 0.00 85 1012.0
20260508051502 46 273 0.0 0.0 0.00 0.00 0.00 85 1012.0
20260508050054 46 273 0.0 0.0 0.00 0.00 0.00 85 1011.9
20260508044548 46 273 0.0 0.0 0.00 0.00 0.00 84 1012.1
20260508043038 46 273 0.0 0.0 0.00 0.00 0.00 83 1012.3
20260508041528 46 273 0.0 0.0 0.00 0.00 0.00 82 1012.2
20260508040018 46 273 0.0 0.0 0.00 0.00 0.00 79 1012.3
20260508034511 46 273 0.0 0.0 0.00 0.00 0.00 79 1012.4
20260508033049 46 273 0.0 0.0 0.00 0.00 0.00 78 1012.3
20260508031552 46 273 0.0 0.0 0.00 0.00 0.00 77 1012.6
20260508030040 47 273 0.0 0.0 0.00 0.00 0.00 76 1012.2
20260508024618 47 273 0.0 0.0 0.00 0.00 0.00 74 1012.2
20260508024503 47 273 0.0 0.0 0.00 0.00 0.00 74 1012.2
20260508023052 47 273 0.0 0.0 0.00 0.00 0.00 74 1012.2
20260508021548 47 273 0.0 0.0 0.00 0.00 0.00 70 1012.2
20260508020048 48 273 0.0 0.0 0.00 0.00 0.00 69 1012.3
20260508014537 49 273 0.0 0.0 0.00 0.00 0.00 69 1012.3
20260508013032 48 258 0.9 0.0 0.00 0.00 0.00 67 1012.2
20260508011530 48 281 0.0 0.0 0.00 0.00 0.00 67 1012.0
20260508010026 49 281 0.0 0.0 0.00 0.00 0.00 67 1012.0
20260508004517 50 281 0.0 0.0 0.00 0.00 0.00 63 1011.9
20260508003055 51 281 0.0 0.0 0.00 0.00 0.00 59 1011.8
20260508001548 52 281 0.0 0.0 0.00 0.00 0.00 55 1011.7
20260508000038 54 281 0.0 0.0 0.00 0.00 0.00 50 1011.4
20260507234521 55 253 1.7 0.0 0.00 0.00 0.00 47 1011.6
20260507233015 56 223 2.6 0.0 0.00 0.00 0.00 44 1011.4
20260507231512 57 242 1.7 0.0 0.00 0.00 0.00 44 1011.3
20260507230004 56 39 2.6 0.0 0.00 0.00 0.00 43 1011.5
20260507224559 57 271 3.5 0.0 0.00 0.00 0.00 45 1011.7
20260507224503 57 257 3.5 0.0 0.00 0.00 0.00 46 1011.6
20260507223057 58 283 2.6 0.0 0.00 0.00 0.00 45 1011.7
20260507223001 58 280 2.6 0.0 0.00 0.00 0.00 45 1011.7
20260507221557 57 240 2.6 0.0 0.00 0.00 0.00 45 1011.8
20260507221501 57 287 2.6 0.0 0.00 0.00 0.00 45 1011.9
20260507220039 57 303 3.5 0.0 0.00 0.00 0.00 44 1011.7
20260507214531 58 228 3.5 0.0 0.00 0.00 0.00 43 1011.7
20260507213015 58 281 3.5 0.0 0.00 0.00 0.00 43 1011.6
20260507211511 57 108 3.5 0.0 0.00 0.00 0.00 45 1011.4
20260507210100 57 264 2.6 0.0 0.00 0.00 0.00 43 1011.5
20260507204551 58 44 3.5 0.0 0.00 0.00 0.00 46 1011.2
20260507203045 58 286 3.5 0.0 0.00 0.00 0.00 47 1011.3
20260507201529 57 234 3.5 0.0 0.00 0.00 0.00 48 1011.6
20260507200024 57 282 4.3 0.0 0.00 0.00 0.00 49 1011.4
20260507194600 57 250 5.2 0.0 0.00 0.00 0.00 50 1011.6
20260507194503 57 122 5.2 0.0 0.00 0.00 0.00 49 1011.6
20260507193059 57 252 5.2 0.0 0.00 0.00 0.00 49 1011.8
20260507193003 57 260 5.2 0.0 0.00 0.00 0.00 49 1011.7
20260507191553 57 199 4.3 0.0 0.00 0.00 0.00 48 1011.7
20260507190035 56 267 6.1 0.0 0.00 0.00 0.00 50 1011.9
20260507184520 55 264 3.5 0.0 0.00 0.00 0.00 56 1012.0
20260507183012 55 237 3.5 0.0 0.00 0.00 0.00 54 1012.1
20260507181506 55 221 4.3 0.0 0.00 0.00 0.00 56 1012.1
20260507180100 55 260 5.2 0.0 0.00 0.00 0.00 56 1012.0
20260507174557 55 293 3.5 0.0 0.00 0.00 0.00 57 1012.2
20260507173042 54 292 4.3 0.0 0.00 0.00 0.00 58 1012.3
20260507171526 55 275 3.5 0.0 0.00 0.00 0.00 54 1012.5
20260507170022 55 221 3.5 0.0 0.00 0.00 0.00 56 1012.4
20260507164508 54 223 5.2 0.0 0.00 0.00 0.00 53 1012.7
20260507163054 54 217 5.2 0.0 0.00 0.00 0.00 56 1012.6
20260507161544 54 269 4.3 0.0 0.00 0.00 0.00 57 1012.5
20260507160044 53 218 3.5 0.0 0.00 0.00 0.00 56 1012.5
20260507154530 53 286 3.5 0.0 0.00 0.00 0.00 56 1012.4
20260507153014 53 220 3.5 0.0 0.00 0.00 0.00 57 1012.5
20260507151506 53 261 4.3 0.0 0.00 0.00 0.00 55 1012.4
20260507150046 52 275 3.5 0.0 0.00 0.00 0.00 58 1012.3
20260507144536 51 261 4.3 0.0 0.00 0.00 0.00 58 1012.3
20260507143026 51 254 4.3 0.0 0.00 0.00 0.00 60 1012.5
20260507141518 50 175 3.5 0.0 0.00 0.00 0.00 60 1012.6
20260507140108 49 264 2.6 0.0 0.00 0.00 0.00 64 1012.6
20260507140006 49 265 2.6 0.0 0.00 0.00 0.00 66 1012.7